Portsmouth, NH

2:49 PM EDT on March 28, 2017 (GMT -0400)
Pease International Tradeport

Weather History for KPSM - May, 2013

Change the Weather History Date:

Wednesday, May 15, 2013

  Actual Average Record
Temperature  
Mean Temperature 50 °F -  
Max Temperature 64 °F 62 °F 89 °F (2004)
Min Temperature 37 °F 43 °F 30 °F (1977)
Degree Days  
Heating Degree Days 16    
Moisture  
Dew Point 40 °F    
Average Humidity 67    
Maximum Humidity 94    
Minimum Humidity 28    
Precipitation  
Precipitation 0.03 in - - ()
Sea Level Pressure  
Sea Level Pressure 29.88 in    
Wind  
Wind Speed 6 mph (South)    
Max Wind Speed 20 mph    
Max Gust Speed 20 mph    
Visibility 10 miles    
Events Rain    
Averages and records for this station are not official NWS values.
T = Trace of Precipitation, MM = Missing Value Source: NWS Daily Summary

Daily Weather History Graph

Daily Weather History Graph

Search for Another Location

Airport or City:

Trip Planner

Search our weather history database for the weather conditions in past years. The results will help you decide how hot, cold, wet, or windy it might be!

Date:

Astronomy

May. 15, 2013 Rise Set
Actual Time 5:19 AM EDT 8:00 PM EDT
Civil Twilight 4:46 AM EDT 8:33 PM EDT
Nautical Twilight 4:05 AM EDT 9:14 PM EDT
Astronomical Twilight 3:18 AM EDT 10:01 PM EDT
Moon 9:53 AM EDT (5/15) No Moon Set
Length of Visible Light 15h 46m
Length of Day
14h 40m
Waxing Crescent, 26% of the Moon is Illuminated
May 15
Waxing Crescent
May 18
First Quarter
May 25
Full
May 31
Last Quarter
Jun 8
New

Hourly Weather History & Observations

Time (EDT) Temp. Windchill Dew Point Humidity Pressure Visibility Wind Dir Wind Speed Gust Speed Precip Events Conditions
12:58 AM 44.2 °F - 32.0 °F 62% 30.04 in 10.0 mi West 2.3 mph - N/A   Partly Cloudy
1:58 AM 41.7 °F - 34.5 °F 76% 30.04 in 10.0 mi SW 1.2 mph - N/A   Clear
2:58 AM 38.7 °F 36.3 °F 34.2 °F 84% 30.04 in 10.0 mi West 3.5 mph - N/A   Scattered Clouds
3:58 AM 39.4 °F 37.2 °F 33.6 °F 80% 30.04 in 10.0 mi West 3.5 mph - N/A   Partly Cloudy
4:58 AM 37.0 °F - 32.7 °F 84% 30.04 in 10.0 mi Calm Calm - N/A   Clear
5:58 AM 37.6 °F - 32.2 °F 81% 30.04 in 10.0 mi WSW 2.3 mph - N/A   Clear
6:58 AM 42.8 °F - 36.5 °F 78% 30.05 in 10.0 mi SW 2.3 mph - N/A   Clear
7:58 AM 47.3 °F - 35.1 °F 62% 30.05 in 10.0 mi WSW 5.8 mph - N/A   Clear
8:58 AM 54.5 °F - 32.2 °F 43% 30.03 in 10.0 mi WSW 4.6 mph - N/A   Partly Cloudy
9:58 AM 59.2 °F - 28.6 °F 31% 30.00 in 10.0 mi SSW 5.8 mph - N/A   Scattered Clouds
10:58 AM 61.3 °F - 27.5 °F 28% 29.99 in 10.0 mi South 5.8 mph - N/A   Scattered Clouds
11:58 AM 61.0 °F - 32.2 °F 34% 29.96 in 10.0 mi SE 19.6 mph - N/A   Scattered Clouds
12:58 PM 61.7 °F - 32.9 °F 34% 29.94 in 10.0 mi SSE 16.1 mph - N/A   Mostly Cloudy
1:58 PM 58.6 °F - 38.3 °F 47% 29.90 in 10.0 mi SE 19.6 mph - N/A   Overcast
2:58 PM 61.3 °F - 42.6 °F 50% 29.86 in 10.0 mi SSE 18.4 mph - N/A   Mostly Cloudy
3:58 PM 62.8 °F - 40.1 °F 43% 29.82 in 10.0 mi SSE 10.4 mph - N/A   Overcast
4:16 PM 60.8 °F - 39.2 °F 45% 29.80 in 7.0 mi South 12.7 mph 19.6 mph N/A Rain Light Rain Showers
4:58 PM 57.2 °F - 44.6 °F 63% 29.81 in 10.0 mi South 5.8 mph - 0.00 in Rain Light Rain Showers
5:58 PM 53.4 °F - 46.4 °F 77% 29.76 in 10.0 mi SSE 10.4 mph - 0.02 in   Overcast
6:27 PM 53.6 °F - 46.4 °F 77% 29.75 in 10.0 mi SSE 12.7 mph - N/A   Overcast
6:58 PM 53.6 °F - 47.8 °F 81% 29.75 in 10.0 mi SSE 12.7 mph - 0.01 in Rain Light Rain Showers
7:40 PM 53.6 °F - 50.0 °F 88% 29.71 in 8.0 mi SSE 12.7 mph - N/A   Overcast
7:58 PM 53.2 °F - 49.8 °F 88% 29.72 in 8.0 mi SSE 10.4 mph - 0.00 in   Overcast
8:58 PM 53.6 °F - 49.6 °F 86% 29.71 in 8.0 mi SSE 10.4 mph - N/A   Overcast
9:58 PM 53.2 °F - 50.2 °F 89% 29.70 in 8.0 mi SSE 5.8 mph - N/A   Overcast
10:58 PM 52.2 °F - 50.0 °F 92% 29.69 in 8.0 mi Calm Calm - N/A   Mostly Cloudy
11:28 PM 53.6 °F - 50.0 °F 88% 29.67 in 10.0 mi Calm Calm - N/A   Overcast
11:58 PM 52.0 °F - 50.4 °F 94% 29.66 in 10.0 mi South 4.6 mph - N/A   Partly Cloudy